Погода в Славгороде

Хотите узнать прогноз погоды в Славгороде? Тогда Вам сюда: Погода в Славгороде

Поиск расширенной информации на нашем сайте:

Полезная информация:

Новости сайта



02.01.2020
Опубликован Долгосрочный прогноз погоды по городам России и ближнего зарубежья на январь 2020 года.
Карты: Прогноз на январь и февраль 2020 года, Сравнение прогнозируемой аномалии приземной температуры воздуха на январь 2020 года по разным моделям.




Погода в Славгороде - сегодня

Время (UTC), дата Ветер
(°,м/с) 
Видим.   Явления Облачность Т
(°С)
Тd
(°С)
f(%) Тe
(°С)
Pmin
(гПа)
dP
(гПа)
Po
(мм)
O2
(г/м3)
Тmin Tmax R s Состояние
почвы
15 27.03.20 250 (З) 10 км  слаб. ливневой снег  10/10 630 м кучево-дожд. 
[Cb cap]
+0.7 -0.9 89 -2  1017  -0.5  751  302           
18 27.03.20 280 (З) 20000 м  {ливн. осадки}  10/10 660 м кучево-дожд. 
[Cb cap]
-0.1 -1.5 90 -3  1016.7  -0.3  751  303           
21 27.03.20 300 (СЗ) 20000 м    10/10 700 м кучево-дожд. 
[Cb cap]
-0.2 -1.8 89 -1  1017  0.2  751  303           
00 28.03.20 280 (З) 20000 м    10/10 700 м кучево-дожд. 
[Cb cap]
-0.1 -1.5 90 -2  1017.4  0.5  751  303  -0.4    равномерный
мокрый или
старый снег
100% 
03 28.03.20 320 (СЗ) 20000 м    8/8 840 м 
[Sc]
+0.1 -2.2 84 -2  1018.9  1.5  752  303  -0.7         
06 28.03.20 300 (СЗ) 20000 м  {ливн. осадки}  6/4 600 м кучево-дожд., средняя 
[Cb cap|Ac trans]
+2.1 -1.5 77 +1  1020.2  1.3  753  301           
09 28.03.20 310 (СЗ) 20000 м    6/4 1000 м верхняя 
[Cu med, cong|Ci sp]
+3 -3.7 61 +1  1020.8  0.7  754  301           
12 28.03.20 310 (СЗ) 20000 м    3/0 средняя 
[Ac trans]
+2.6 -4.4 60 +1  1021.6  0.7  754  302    +3.7  0.0     
15 28.03.20 280 (З) 20000 м    ясно 
-2.3 -4.3 86 -3  1023.4  1.6  756  308           
18 28.03.20 280 (З) 20000 м    ясно 
-2.8 -4.8 86 -5  1024.6  1.1  756  308           
21 28.03.20 290 (З) 20000 м    ясно 
-4.8 -6.8 86 -6  1025.8  757  311           
00 29.03.20 260 (З) 20000 м    ясно 
-6.1 -7.9 87 -8  1027.1  1.2  758  313  -6.1         
03 29.03.20 260 (З) 20000 м    ясно 
-0.2 -4.2 74 -1  1028.1  1.3  759  307  -6.2         
06 29.03.20 260 (З) 20000 м    ясно 
+3.5 -6.3 49 +1  1028.6  0.7  760  303           
09 29.03.20 260 (З) 20000 м    6/4 1000 м верхняя 
[Cu hum|Ci sp]
+4.6 -4.9 50 +2  1028.3  -0.2  759  301           
12 29.03.20 260 (З) 20000 м    ясно 
+4.3 -5.1 50 +3  1028.1  -0.2  759  302    +5       
15 29.03.20 180 (Ю) 20000 м    ясно 
-1.2 -5.3 74 -2  1028.5  0.1  759  308           
18 29.03.20 190 (Ю) 20000 м    ясно 
-3.2 -5.6 83 -4  1028.5  -0.1  759  310           
21 29.03.20 190 (Ю) 20000 м    ясно 
-3.5 -6.2 82 -6  1028.8  0.2  759  311           
00 30.03.20 210 (ЮЗ) 20000 м    ясно 
-4.3 -6.6 84 -6  1029.3  0.5  760  312  -4.4         
03 30.03.20 230 (ЮЗ) 20000 м    ясно 
+1.2 -2.5 76 +1  1029.9  0.9  760  305           
06 30.03.20 230 (ЮЗ) 20000 м    ясно 
+7.2 -2.8 49 +6  1030  0.5  761  299           
09 30.03.20 220 (ЮЗ) 20000 м    ясно 
+8.6 -3.1 44 +7  1029.2  -0.7  760  297           
12 30.03.20 190 (Ю) 20000 м    ясно 
+8 -3.3 45 +7  1028.8  -0.5  760  298    +9       
15 30.03.20 180 (Ю) 20000 м    ясно 
+1.5 -3.3 70 1028.9  -0.2  760  305           
Время (UTC), дата Ветер
(°,м/с) 
Видим.   Явления Облачность Т
(°С)
Тd
(°С)
f(%) Тe
(°С)
Pmin
(гПа)
dP
(гПа)
Po
(мм)
O2
(г/м3)
Тmin Tmax R s Состояние
почвы

Для получения пояснительной информации подведите курсор к названию столбца.

ПОГОДА в Славгороде - архив

Всё, что Вы хотите узнать о погоде в Славгороде - удобно и подробно!

Выберите нужную дату (начиная с 1 января 2019* года) и нажмите кнопку "Найти".
Будут отображены архивные сводки погоды по пункту Славгород, начиная с указанной даты.


Отображать данные в формате CSV (для использования в таблицах Excel)


Внимание! Наш архив погоды предназначен исключительно для личного некоммерческого использования в познавательных целях. Если Вам необходимы официальные справки о состоянии погоды (для производственных, юридических, коммерческих и т.п. целей), обращайтесь в органы Росгидромета.

*Примечание: данная дата относится к архиву по метеостанциям СССР (Россия, СНГ, Балтия).
Архив по метеостанциям Зарубежной Европы и Азии (кроме Китая) хранится 10 дней, по другим регионам земного шара (Китай, Африка, Америка, Австралия, Океания) - 1 день.

Славгород - район местоположения метеостанции


Название, широта, долгота, высота метеостанции:
Славгород 53°ш. 78.6°д. 126 м над ур. моря [Российская Федерация]

Дополнительная информация

В oтличие oт бoльшинства пoгoдных сайтoв мы публикуем пoдрoбную метеoинфoрмацию в детальнoм прoфессиoнальнoм фoрмате.

Характеристики температуры и влажнoсти вoздуха измеряются на высoте 2 м в тени вдали oт зданий и деревьев.
Скoрoсть ветра измеряется на высoте 10 м (на урoвне рoста челoвека скoрoсть ветра ниже в 1.5-2 раза). Если метеoстанция нахoдится в гoрoде или в лесу, тo скoрoсть ветра занижена на 2-4 м/с пo сравнению с oткрытым местoм. Скoрoсть ветра над акватoриями крупных рек и oзёр, а также на вершинах хoлмoв на 2-5 м/с выше, чем в oбычных услoвиях.
Атмoсфернoе давление в разных тoчках местнoсти мoжет значительнo oтличаться oт давления на метеoстанции, в зависимoсти oт услoвий рельефа (при пoдъёме на 10 м давление пoнижается примернo на 1 мм рт.ст.).